Starlink 1800

operational
NORAD ID: 46700 Int'l Des: 2020-073 Owner: SPXS Country: US Constellation: starlink
LEOCIRCULARSTARLINK_TYPE

About Starlink 1800

Description loading...

Live Position

Loading 3D Globe...

Upcoming Passes

Altitude History

Altitude vs Time

uPlot chart will show altitude changes over time

Two-Line Element Set

1 46700U 20073AG 25260.16449861 .00004825 00000-0 34268-3 0 9998
2 46700 53.0563 315.6026 0000963 63.6347 296.4740 15.06384986270765
Epoch: Sep 17, 2025 • Age: 23 hours

Current Status

Altitude 552.1 km
Velocity 7.59 km/s
Sub-Earth Point 48.84°N, 25.33°W
Launch Date Oct 18, 2020
Age 4.9 years
Type internet

Technical Details

Classification Payload
Mass 260.00 kg
Dry Mass 248.00 kg
Total Mass 260.00 kg
Length 0.20 m
Diameter 2.80 m
Span 9.00 m
Shape Box + pan
Manufacturer SPXS
Bus Type Starlink
Phase Status In Orbit
Owner/State SPXS/US

Large Constellations

Loading constellations...